Regional Weather Roundup
Issued by NWS

Home | Current Version | Previous Version | Graphics & Text | Print | Product List | Glossary On
Versions: 1 2 3 4 5 6 7 8 9 10 11 12 13 14 15 16 17 18 19 20 21 22 23 24 25 26 27 28 29 30 31 32 33 34 35 36 37 38 39 40 41 42 43 44 45 46 47 48 49 50
000
ASUS43 KLMK 191810
RWRKY
KENTUCKY REGIONAL WEATHER ROUNDUP
NATIONAL WEATHER SERVICE LOUISVILLE KY
200 PM EDT THU APR 19 2018

NOTE "FAIR" INDICATES FEW OR NO CLOUDS BELOW 12,000 FEET
WITH NO SIGNIFICANT WEATHER AND/OR OBSTRUCTIONS TO VISIBILITY.

KYZ001>023-026-027-061>063-070>075-191900-
WESTERN AND SOUTH CENTRAL KENTUCKY

CITY           SKY/WX    TMP DP  RH WIND       PRES   REMARKS
PADUCAH        CLOUDY    48  30  49 N14G20    30.36R
HENDERSON      CLOUDY    46  34  62 NW10      30.36R
OWENSBORO      CLOUDY    46  33  60 NW9G17    30.34R
HOPKINSVILLE   CLOUDY    45  28  51 N12       30.33R
BOWLING GREEN  PTSUNNY   49  32  52 VRB5      30.31R
GLASGOW        PTSUNNY   49  31  51 N10G16    30.30R
$$

KYZ024-025-028>034-038-045-046-053-191900-
NORTH CENTRAL KENTUCKY

CITY           SKY/WX    TMP DP  RH WIND       PRES   REMARKS
LOUISVILLE/SDF PTSUNNY   51  33  50 N10       30.29R
LOUISVILLE/LOU CLOUDY    47  34  60 N12G18    30.30R
FORT KNOX      CLOUDY    45  31  58 N14       30.29R
$$

KYZ035>037-039>044-047>052-055>060-089>105-191900-
NORTHEAST KENTUCKY

CITY           SKY/WX    TMP DP  RH WIND       PRES   REMARKS
LEXINGTON      CLOUDY    44  32  62 N9        30.26R
COVINGTON      PTSUNNY   46  29  51 N13G20    30.25R
FRANKFORT      CLOUDY    46  30  53 N12       30.26R
$$

KYZ054-064>069-076>088-106>120-191900-
SOUTHEAST KENTUCKY

CITY           SKY/WX    TMP DP  RH WIND       PRES   REMARKS
JACKSON        CLOUDY    40  29  64 NW9G17    30.21R WCI  34
LONDON         CLOUDY    44  28  53 NW13G22   30.23R
SOMERSET       CLOUDY    45  28  53 N6        30.28R
MIDDLESBORO    PTSUNNY   47  30  50 NW9G20    30.22R
MONTICELLO     CLOUDY    46  30  53 N13G20    30.28R
$$





USA.gov is the U.S. government's official web portal to all federal, state and local government web resources and services.